This is the latest recevied weather packets stored in our database for station/object WV8BRW. If no packets are shown the sender has not sent any weather packets the latest 10 day(s).
| Time | Temp. | Humidity | Pressure | Rain* | Wind** | Luminosity | Snow |
|---|---|---|---|---|---|---|---|
| 1778128052 | 12.22° C | 81% | 1013 hPa | 0 mm | - | 0 W/m² | - |
| 1778127747 | 12.22° C | 77% | 1012.9 hPa | 0 mm | - | 0 W/m² | - |
| 1778127445 | 12.22° C | 75% | 1012.7 hPa | 0 mm | - | 0 W/m² | - |
| 1778127141 | 12.22° C | 76% | 1012.9 hPa | 0 mm | - | 0 W/m² | - |
| 1778126838 | 12.22° C | 76% | 1012.8 hPa | 0 mm | - | 0 W/m² | - |
| 1778126534 | 12.78° C | 75% | 1012.5 hPa | 0 mm | - | 0 W/m² | - |
| 1778126230 | 12.78° C | 75% | 1012.6 hPa | 0 mm | - | 0 W/m² | - |
| 1778125926 | 12.78° C | 76% | 1012.8 hPa | 0 mm | - | 0 W/m² | - |
| 1778125623 | 12.78° C | 76% | 1012.2 hPa | 0 mm | - | 0 W/m² | - |
| 1778125320 | 12.78° C | 76% | 1012.2 hPa | 0 mm | - | 0 W/m² | - |
| 1778125019 | 12.78° C | 76% | 1012.2 hPa | 0 mm | - | 0 W/m² | - |
| 1778124715 | 12.78° C | 76% | 1012.5 hPa | 0 mm | - | 0 W/m² | - |
| 1778124413 | 12.78° C | 76% | 1012.5 hPa | 0 mm | - | 0 W/m² | - |
| 1778124109 | 12.78° C | 77% | 1012.3 hPa | 0 mm | - | 0 W/m² | - |
| 1778123806 | 12.78° C | 77% | 1012.4 hPa | 0 mm | - | 0 W/m² | - |
| 1778123502 | 12.78° C | 78% | 1012.5 hPa | 0 mm | - | 0 W/m² | - |
| 1778123199 | 12.78° C | 79% | 1012.2 hPa | 0 mm | - | 0 W/m² | - |
| 1778122897 | 12.78° C | 82% | 1012.3 hPa | 0 mm | - | 0 W/m² | - |
| 1778122594 | 11.67° C | 93% | 1012.5 hPa | 0 mm | - | 0 W/m² | - |
| 1778122291 | 11.67° C | 99% | 1012.6 hPa | 0 mm | - | 0 W/m² | - |
| 1778121989 | 12.22° C | 99% | 1012.6 hPa | 0 mm | - | 0 W/m² | - |
| 1778121686 | 12.22° C | 99% | 1012.3 hPa | 0 mm | - | 0 W/m² | - |
| 1778121381 | 12.78° C | 99% | 1012.7 hPa | 0 mm | - | 0 W/m² | - |
| 1778121079 | 12.78° C | 99% | 1012.4 hPa | 0 mm | - | 0 W/m² | - |
| 1778120776 | 12.78° C | 99% | 1012.3 hPa | 0 mm | - | 0 W/m² | - |
* Rain latest hour (hover to see other rain measurements)
** Current wind speed in m/s (hover to see current wind gust speed)